Theta_e
309 309 310 311 312 312 312 313 313 313 312 313 314 315 314 313 312 312 314 315 315 316 316 316 317 319 320 323 327 329 330 332 334 336 338 339 339 339 340 341 342 344 345 345 344 343 342 341 339 335 331 339
307 307 308 308 309 309 309 310 310 310 309 310 310 311 310 309 309 309 310 311 312 313 313 312 313 315 318 321 324 325 325 326 325 327 330 334 337 339 339 339 340 341 343 344 343 341 340 339 338 334 331 338
298 305 305 306 306 307 307 307 308 307 307 307 308 309 308 307 306 306 306 307 308 309 309 309 309 312 315 318 320 320 320 321 323 326 327 328 330 334 337 338 338 339 340 341 341 340 338 335 332 328 330 338
294 302 302 303 304 305 305 305 306 306 305 304 304 305 306 304 302 301 300 304 303 306 307 306 306 309 311 315 316 316 316 318 320 323 324 325 325 327 329 332 332 332 335 337 338 337 335 332 327 335 336 337
294 298 299 297 300 301 302 303 303 303 302 301 300 302 303 301 297 296 297 297 299 303 301 304 305 307 309 311 312 312 313 315 318 320 321 321 322 321 323 324 328 329 331 334 334 333 331 327 333 336 336 337
295 294 296 292 293 296 297 299 299 296 296 299 294 300 298 296 297 296 295 297 302 298 300 299 304 305 307 308 308 309 310 311 314 317 318 318 318 317 316 316 319 324 326 328 330 329 325 330 334 335 336 336
294 292 291 291 292 294 296 296 296 292 294 292 293 295 296 297 295 295 295 297 301 301 301 300 303 304 304 305 305 306 306 308 311 314 314 315 314 313 311 309 313 316 321 324 323 323 329 331 333 334 335 335
291 291 291 291 291 291 291 292 293 291 292 292 292 293 295 295 295 294 294 300 300 299 295 296 300 301 301 302 302 304 301 304 307 310 311 311 310 308 307 306 308 310 314 318 322 326 330 332 332 333 333 333
291 292 290 290 291 291 290 291 290 290 291 291 292 292 294 294 294 294 293 294 294 294 294 294 295 295 295 295 295 301 295 298 301 304 303 303 304 302 303 303 304 306 308 311 315 319 324 328 331 331 331 332
293 291 290 290 291 291 290 291 290 290 290 291 291 292 293 294 292 292 293 293 293 294 294 293 294 294 294 294 294 296 295 297 300 301 301 301 301 301 301 301 302 304 305 308 311 314 318 323 327 330 331 332
289 289 289 289 292 291 289 291 290 289 289 290 290 291 292 292 290 291 291 292 292 292 293 293 293 293 293 293 293 294 295 296 299 300 300 300 299 300 300 300 301 303 305 307 308 311 315 320 324 327 330 331
289 288 289 290 292 289 293 291 289 289 289 290 289 291 290 293 290 290 290 291 291 291 292 292 293 292 292 292 292 294 295 296 297 298 299 299 298 299 299 299 301 302 304 305 307 309 312 316 320 325 328 330
288 288 288 288 288 287 294 289 288 289 289 289 289 289 290 291 289 289 290 290 291 291 291 292 292 291 291 292 292 293 294 295 296 297 297 298 298 298 298 299 300 301 302 303 304 306 308 312 315 319 324 328
288 288 287 288 288 287 291 287 288 289 288 288 287 288 289 289 290 289 289 289 290 290 290 291 291 291 291 291 292 292 293 295 296 296 297 297 298 298 298 299 299 300 301 301 303 304 306 308 310 313 318 322
288 288 286 288 287 287 287 287 289 288 287 288 287 288 288 289 289 291 289 289 290 290 290 290 290 290 291 291 291 292 293 294 295 296 296 297 297 297 298 298 299 299 299 300 301 302 303 304 305 306 310 315
287 287 286 288 286 286 287 288 287 286 287 288 287 288 287 288 288 291 289 289 289 290 289 289 289 290 290 290 291 292 292 293 294 295 296 297 297 298 298 298 298 299 298 298 299 300 301 302 302 304 306 309
286 286 286 286 286 286 288 286 286 286 286 286 287 287 287 287 288 289 288 288 289 290 288 288 288 288 288 289 290 290 291 292 294 294 295 295 296 296 297 297 297 298 298 298 298 299 299 300 300 302 305 306
285 285 285 288 285 287 286 285 285 286 286 286 287 286 286 287 287 288 288 288 288 288 287 287 287 286 287 287 288 289 289 289 291 293 294 294 295 296 296 295 296 296 296 297 297 297 298 299 300 301 303 304
285 286 285 284 284 285 285 286 285 285 285 285 285 286 285 286 287 288 287 287 287 286 286 285 285 286 286 287 287 287 288 288 289 291 292 293 294 294 294 295 296 296 296 296 296 297 298 298 299 300 301 303
284 284 284 284 287 286 285 285 284 284 284 285 284 285 285 285 286 287 286 286 286 285 285 285 284 285 286 286 286 286 287 288 288 289 291 292 293 293 294 295 295 296 295 296 296 296 297 298 298 299 300 301
283 284 283 283 284 284 284 284 283 284 284 284 284 284 284 284 286 286 285 285 285 284 284 284 284 284 284 285 285 285 286 286 288 287 288 290 293 294 293 294 294 295 295 295 296 296 296 297 298 298 300 300
283 283 283 283 283 286 284 283 283 283 284 283 283 283 284 284 285 286 284 284 284 283 284 283 283 283 283 284 284 284 284 285 286 286 287 288 290 293 294 294 294 294 295 296 296 296 296 297 297 298 299 300
284 283 282 282 282 282 282 282 282 283 283 283 283 283 284 284 284 285 284 284 284 283 283 282 282 282 282 283 283 283 283 283 285 285 286 285 286 289 292 294 295 295 295 295 295 295 296 296 297 298 298 299
281 281 282 281 281 281 282 281 283 283 282 283 282 284 284 283 283 283 284 283 282 282 282 281 281 281 282 282 282 282 282 282 283 284 284 285 286 286 289 292 294 295 294 294 294 295 295 296 296 296 297 297
281 280 280 280 280 280 280 281 283 282 282 282 282 283 283 283 283 282 282 283 282 281 282 281 281 281 281 281 282 282 282 283 283 284 285 286 286 286 287 290 293 294 295 293 292 294 293 294 295 296 296 296
282 280 280 280 280 279 280 280 280 280 281 282 284 282 282 282 282 282 281 282 281 281 280 280 280 280 280 281 281 282 283 284 285 285 285 285 285 286 287 288 293 295 294 291 289 288 289 291 293 294 294 294
280 280 281 280 280 280 279 280 281 281 282 282 282 281 281 282 281 281 281 281 282 281 281 280 280 280 280 281 282 282 282 283 282 283 283 284 284 284 287 288 291 292 293 289 290 291 289 287 287 291 293 295
281 281 282 281 280 280 280 279 283 282 281 280 280 280 281 280 281 281 281 281 280 281 280 280 280 280 280 281 282 281 280 280 280 281 282 283 284 286 285 287 288 291 292 292 291 286 287 287 288 285 287 289
281 282 279 279 280 280 280 280 279 278 278 279 280 281 279 279 280 280 280 280 280 281 280 280 280 280 280 280 280 280 280 280 280 281 282 283 284 286 287 286 288 290 292 292 294 291 288 285 285 285 287 290
281 280 278 277 277 277 277 276 277 277 277 278 278 278 279 279 279 279 279 279 279 279 280 280 280 280 280 279 280 280 280 280 280 280 280 282 283 284 285 285 286 286 290 293 293 294 294 292 287 286 287 288
282 277 278 277 277 277 276 275 276 277 278 277 278 278 278 278 279 279 279 279 279 279 279 280 280 279 279 279 279 280 279 278 279 279 280 282 282 282 284 285 285 285 287 291 293 294 295 295 294 294 290 286
Wind_Speed
18 19 19 19 19 19 19 20 20 20 20 20 20 20 20 20 20 20 20 20 21 21 21 22 22 21 21 21 20 21 22 22 22 22 21 20 19 18 18 19 19 16 14 13 13 13 13 13 12 11 9 6
16 17 18 18 18 18 18 18 19 19 19 19 19 18 18 18 18 19 19 19 20 21 21 22 22 21 21 21 20 21 21 22 22 22 21 21 21 20 19 18 19 18 15 14 13 12 13 14 14 12 10 6
8 14 15 16 17 17 18 18 17 17 17 17 17 17 17 16 15 15 16 17 18 19 20 20 20 21 21 22 22 21 21 22 21 22 21 21 21 21 20 19 18 18 19 17 14 13 12 13 14 14 8 6
5 8 12 12 13 14 15 16 16 15 14 13 13 13 13 13 10 10 8 14 11 16 18 18 17 20 21 21 22 23 23 22 22 21 22 22 22 22 22 21 20 19 18 17 17 16 15 12 14 10 6 7
4 5 9 7 9 11 12 12 13 13 11 10 9 9 8 7 7 7 7 8 8 10 10 15 16 19 20 21 21 22 22 23 23 22 21 21 22 22 22 20 17 14 16 16 15 16 17 17 10 8 8 8
4 4 6 5 4 4 6 7 8 6 5 7 5 7 6 5 6 6 5 6 9 8 9 9 15 17 19 20 20 20 21 21 21 22 22 21 21 21 20 21 11 11 13 15 14 14 16 13 9 9 9 9
3 4 4 4 4 4 5 5 4 4 4 4 5 5 4 5 5 5 4 6 7 7 11 11 15 16 18 19 20 20 20 19 20 21 20 21 21 21 19 12 9 9 9 10 14 13 10 9 9 10 10 9
4 4 4 4 4 4 3 4 3 3 3 3 4 4 4 4 4 4 4 6 9 8 7 8 11 15 15 15 15 19 12 14 15 20 18 18 19 12 8 9 9 9 9 9 9 9 9 9 10 11 10 9
6 6 6 6 5 5 4 4 4 3 3 4 4 4 4 3 3 4 5 4 6 6 7 7 8 9 9 9 9 12 9 9 9 9 9 9 10 8 8 9 9 9 9 9 9 9 9 10 11 11 10 10
5 6 7 7 7 7 7 6 6 6 5 5 4 3 3 3 3 4 4 4 5 6 6 7 7 7 7 8 9 9 9 8 9 9 8 8 8 8 8 7 8 8 8 9 9 9 10 10 10 10 10 11
6 6 5 6 6 7 7 6 6 6 5 5 4 4 4 6 5 5 4 5 5 5 5 5 6 7 6 7 8 8 8 9 8 8 8 8 8 7 8 8 7 8 8 8 10 10 10 10 11 11 11 11
5 4 5 5 6 6 6 6 6 6 6 5 5 4 4 3 4 5 6 6 6 6 4 5 4 4 5 6 6 7 7 8 9 8 7 8 8 8 7 8 8 7 7 8 8 9 10 11 11 11 11 11
3 3 4 4 4 5 5 5 5 6 6 6 6 4 5 4 6 5 4 4 4 4 6 6 6 6 6 6 6 6 6 7 8 8 8 8 8 8 8 7 7 7 7 7 8 8 10 10 11 11 11 11
3 3 4 4 4 5 5 5 6 5 6 6 5 6 5 5 4 5 5 5 4 5 5 5 5 6 7 7 7 7 8 7 7 8 8 8 8 8 8 8 8 7 7 7 7 7 9 9 10 10 11 12
3 3 4 4 4 4 5 5 6 6 6 6 5 5 5 5 5 6 6 6 6 5 6 5 6 6 7 8 8 8 8 8 8 8 8 8 9 8 9 8 7 7 8 7 7 6 7 8 9 10 10 11
4 4 4 4 4 4 5 5 5 5 5 6 5 4 4 3 4 3 4 4 5 6 6 7 7 7 7 7 7 8 9 10 10 9 9 8 8 8 8 9 7 6 7 8 7 7 8 7 8 8 9 10
3 3 3 4 4 4 4 5 5 5 5 6 5 3 3 3 4 3 4 4 5 6 6 6 7 7 7 7 7 8 9 11 10 9 9 10 8 8 8 9 9 7 7 8 7 7 8 8 8 8 8 9
3 3 3 3 3 3 3 3 4 5 5 5 4 3 3 3 4 4 5 5 6 6 7 7 7 8 7 7 8 8 8 9 9 9 9 10 10 9 9 9 9 8 9 8 7 7 7 7 8 8 9 9
3 3 3 3 2 2 2 3 4 5 5 5 4 2 2 3 4 4 4 5 5 5 5 5 6 6 7 8 8 8 8 8 8 9 9 9 9 10 10 10 9 9 10 9 10 8 7 8 8 9 10 10
2 3 3 3 3 2 2 3 4 4 5 5 4 2 3 4 4 3 4 4 3 3 4 5 5 6 6 7 8 8 8 8 9 9 9 9 9 11 11 10 12 8 10 9 11 9 9 9 8 10 10 11
3 3 3 3 3 3 3 3 4 4 5 5 4 3 3 3 4 4 4 4 3 3 4 4 5 6 6 6 7 7 8 8 8 9 10 10 9 9 12 11 12 11 9 10 11 11 10 10 10 11 10 11
3 3 3 3 2 3 3 3 4 4 4 5 5 2 3 3 4 4 4 4 4 4 5 5 5 6 6 7 7 7 7 8 7 8 9 11 10 10 10 11 11 11 9 10 11 12 13 13 11 11 11 11
3 3 4 4 3 3 3 3 3 3 4 5 5 2 2 2 3 4 4 4 4 5 6 7 7 7 7 7 7 7 7 7 7 7 8 10 12 11 11 12 11 11 10 11 12 13 15 13 14 13 12 12
3 3 3 4 4 2 2 3 4 3 4 5 5 3 1 2 3 3 3 3 3 3 5 6 6 7 7 7 8 9 9 8 7 9 9 10 11 13 12 11 11 10 10 11 13 15 14 14 14 15 13 13
1 2 4 2 2 5 5 5 4 5 4 4 5 2 1 2 2 3 3 4 4 5 6 6 6 7 7 7 7 8 8 9 10 9 9 9 9 12 14 11 8 9 8 11 14 11 13 15 12 14 14 15
1 2 1 1 5 4 6 7 6 6 6 6 5 3 3 4 3 4 5 5 4 5 5 7 7 7 7 7 7 8 8 8 9 9 8 8 10 7 11 12 8 8 7 9 10 13 14 14 13 11 14 16
2 2 2 2 4 3 5 5 5 5 6 5 5 5 5 5 5 6 6 6 6 5 5 6 7 7 7 6 7 7 7 6 8 8 10 10 10 11 8 10 9 9 7 12 10 10 12 15 15 12 8 9
3 3 3 3 4 5 5 6 5 5 5 4 3 5 4 3 3 4 6 6 6 6 6 6 7 7 7 7 6 8 9 8 8 8 8 9 12 11 13 9 9 7 9 9 9 10 8 10 9 16 13 4
2 2 2 3 4 5 5 4 5 5 5 5 3 3 3 4 3 5 6 6 6 6 6 6 6 7 8 8 7 7 8 8 8 8 8 10 11 12 10 13 12 10 10 12 11 12 10 10 10 12 15 11
2 2 1 2 4 6 4 7 7 7 9 9 8 8 5 5 4 4 5 5 5 5 5 5 6 7 8 7 7 7 7 8 8 8 9 9 10 13 12 12 13 14 11 12 14 16 17 13 12 10 8 9
3 2 2 2 2 3 3 4 4 4 5 6 6 4 6 6 5 5 6 6 6 6 6 6 7 7 7 7 6 7 7 8 8 8 8 8 8 10 11 12 13 15 13 11 12 14 17 17 15 13 10 12
Wind_Direction
38 38 39 39 38 38 36 35 34 33 31 30 28 27 25 23 21 19 18 16 15 14 13 11 7 3 2 0 360 359 357 355 353 350 345 339 333 325 315 304 294 283 280 279 278 279 281 281 282 272 266 256
30 35 36 37 37 37 37 36 35 34 31 29 28 28 26 23 19 18 16 15 14 12 13 10 6 2 1 0 1 359 357 354 352 350 349 346 340 333 325 313 301 291 281 276 276 275 278 282 282 281 270 257
18 31 31 32 34 33 34 35 34 34 31 27 26 24 22 21 20 15 12 12 11 10 10 8 5 2 1 360 360 358 355 353 351 349 349 349 347 342 333 328 319 304 293 284 275 272 273 277 280 280 280 267
24 23 30 27 28 28 30 30 28 26 26 25 22 23 20 16 15 13 11 8 6 5 5 3 3 2 2 0 359 356 353 352 351 351 350 350 350 349 344 338 332 324 309 292 288 286 279 271 273 278 269 262
24 19 31 20 19 23 23 22 20 19 17 18 14 19 17 18 18 11 6 2 5 5 0 357 359 0 2 0 358 355 353 350 349 350 350 350 351 350 348 344 335 329 323 311 295 286 283 277 268 268 268 262
20 16 20 18 11 10 14 7 13 4 10 7 10 11 15 18 15 13 6 1 359 1 359 356 358 358 359 358 357 353 352 349 348 348 348 348 349 350 350 349 346 338 329 322 311 298 285 277 270 266 263 256
16 20 14 11 10 4 5 359 1 360 0 5 5 7 12 16 11 9 6 2 358 356 352 353 356 357 358 356 353 350 350 347 345 346 346 346 346 347 348 349 345 339 332 324 319 310 297 279 273 270 263 257
15 14 9 10 3 1 353 349 351 350 354 2 8 9 12 9 7 6 5 359 358 357 358 354 353 354 354 353 350 347 346 342 341 342 341 342 344 345 346 344 340 335 330 327 320 314 304 292 279 271 267 260
7 3 4 1 358 354 357 347 346 347 351 360 7 7 8 7 6 4 4 3 359 1 357 355 354 352 352 347 345 344 343 338 334 336 336 338 340 340 341 338 335 333 329 324 320 316 308 298 289 278 270 266
353 8 5 354 353 351 351 352 347 348 348 356 356 360 2 7 14 10 8 0 359 359 356 354 354 350 345 343 340 340 336 333 330 330 329 330 332 330 330 329 325 323 323 322 321 316 310 301 292 283 275 270
2 4 351 347 344 354 340 343 340 337 336 337 340 358 2 12 8 8 9 1 357 356 354 350 346 343 341 338 333 334 332 327 325 323 323 323 322 321 321 322 321 320 322 322 319 315 311 306 297 288 280 272
359 347 349 345 347 344 327 336 329 321 321 323 340 354 2 14 16 10 1 357 354 351 347 344 331 326 330 330 326 322 323 320 321 320 318 316 316 317 316 314 317 316 317 317 314 311 311 311 306 299 289 278
331 343 347 350 344 333 321 325 314 311 317 329 332 340 354 1 6 8 8 357 346 335 344 338 340 337 332 328 322 322 316 313 314 316 316 314 309 310 311 309 309 311 310 309 310 309 310 310 309 306 299 292
345 355 348 341 334 318 328 321 314 317 319 313 324 336 349 356 4 4 360 349 342 348 337 330 329 336 336 332 327 326 320 316 309 308 310 307 307 305 302 303 301 302 302 301 300 302 303 306 308 307 305 298
344 348 349 329 320 320 323 320 320 319 314 316 326 333 342 358 4 2 1 357 349 348 343 341 342 340 335 334 333 329 319 316 312 305 299 300 299 301 299 293 293 294 293 292 293 291 292 297 300 300 301 299
349 346 330 322 325 327 324 330 325 317 316 316 322 327 350 0 0 7 356 351 348 348 347 348 349 341 341 335 330 330 324 318 313 308 299 291 287 287 289 289 285 279 282 286 284 287 287 288 287 291 296 295
324 317 319 318 322 318 328 327 319 313 312 312 311 326 350 1 357 359 357 355 357 355 353 347 341 342 336 332 330 325 320 315 310 307 307 302 295 290 285 284 284 278 274 278 280 280 284 286 281 281 284 286
315 305 300 301 301 313 324 309 307 298 299 295 300 318 342 0 353 357 0 6 3 358 352 348 343 339 335 332 329 322 320 318 312 304 301 300 305 300 295 290 284 283 281 274 273 274 280 279 283 282 277 277
290 287 292 301 302 306 309 299 295 294 294 285 285 301 341 2 353 357 2 7 5 351 348 341 334 331 329 328 325 320 317 312 309 302 299 300 295 291 292 288 285 283 279 282 280 277 277 279 287 284 278 276
276 289 299 301 300 311 293 292 285 286 285 284 292 329 360 4 353 2 1 2 359 352 346 337 333 326 325 326 321 316 312 311 311 311 303 298 296 298 289 290 290 281 283 283 282 279 278 280 279 279 282 279
307 311 307 305 295 282 285 277 277 279 280 284 298 325 5 357 350 352 351 354 353 356 341 339 333 326 325 325 320 312 311 308 310 314 308 302 293 284 291 287 281 285 283 286 287 289 281 278 279 274 276 280
295 289 289 281 271 271 259 262 258 263 269 283 285 318 2 354 347 344 344 347 348 350 340 336 328 325 325 324 321 317 313 308 306 304 305 306 304 296 288 286 285 284 282 282 287 288 286 286 278 275 275 273
283 288 284 272 272 269 256 263 261 257 281 284 289 317 353 1 348 333 335 339 342 349 341 335 332 328 327 325 320 317 310 307 303 298 300 301 300 296 287 284 283 284 286 285 283 282 282 282 279 278 273 270
279 274 285 307 315 295 253 272 284 273 263 279 288 298 333 342 326 316 320 320 326 331 331 329 325 323 324 325 324 321 319 312 311 304 299 291 292 292 283 274 278 282 287 283 277 278 279 275 277 273 270 268
242 310 329 331 295 292 300 297 289 274 267 274 279 285 292 322 309 307 311 320 332 330 330 324 318 319 320 318 315 309 301 297 293 288 285 289 288 291 289 278 266 270 275 285 286 274 273 279 265 266 269 266
223 199 197 257 285 291 302 307 309 310 320 311 309 316 330 336 330 324 323 322 326 323 320 317 315 310 304 306 297 288 283 283 282 289 288 291 290 275 289 290 285 280 291 275 277 302 300 283 275 263 261 255
224 221 250 209 260 255 280 264 254 258 271 292 303 312 333 335 332 328 321 314 311 308 307 303 303 297 294 289 289 291 288 289 296 295 294 289 285 295 275 279 284 280 257 276 279 276 293 289 313 291 251 256
215 226 245 250 251 262 236 254 265 268 273 276 289 305 314 305 296 298 295 297 296 297 297 294 290 291 291 290 290 293 296 295 291 291 290 289 283 280 290 283 278 265 265 258 275 275 235 279 291 298 283 310
221 251 276 270 268 245 258 263 252 249 250 228 243 275 293 290 274 268 267 269 264 262 268 268 269 279 285 287 287 287 287 290 289 290 286 286 285 286 294 301 297 287 268 257 244 258 276 276 265 253 286 324
197 217 233 308 329 334 332 325 329 330 327 327 332 322 309 294 281 273 268 264 264 254 258 262 267 272 277 278 282 284 286 286 287 281 281 280 287 287 282 278 289 286 280 266 251 242 247 247 259 278 289 322
208 215 211 234 240 235 251 270 264 250 267 274 283 284 295 294 295 286 282 283 276 275 272 280 280 275 273 274 278 286 288 286 280 278 272 279 282 291 298 291 281 281 284 283 266 250 242 245 249 256 269 269